Location: Evensen
(52.5775°N, 9.5258°E)
Time: 11:46:04
(UTC+00:00)

Cosmos 1833 - Pass Details

Date: 15 May 2026
Orbit: 833 x 865 km, 70.9° (Epoch: 9 June)

Event Time Altitude Azimuth Distance (km) Brightness Sun altitude
Exits shadow 21:44:10 - 208° (SSW) 2,577 6.4 -15.5°
Reaches altitude 10° 21:44:29 10° 208° (SSW) 2,458 6.2 -15.5°
Maximum altitude 21:50:08 87° 121° (ESE) 847 4.1 -15.9°
Drops below altitude 10° 21:55:47 10° 32° (NNE) 2,457 7.1 -16.2°
Sets 21:58:13 0° 32° (NNE) 3,393 7.9 -16.3°
